Regional Weather Roundup
Issued by NWS

Home | Current Version | Previous Version | Graphics & Text | Print | Product List | Glossary On
Versions: 1 2 3 4 5 6 7 8 9 10 11 12 13 14 15 16 17 18 19 20 21 22 23 24 25 26 27 28 29 30 31 32 33 34 35 36 37 38 39 40 41 42 43 44 45 46 47 48 49 50
000
ASUS43 KIND 011859
RWRIN

WEATHER ROUNDUP FOR INDIANA
NATIONAL WEATHER SERVICE INDIANAPOLIS IN
300 PM EDT SAT AUG 01 2015

NOTE: "FAIR" INDICATES FEW OR NO CLOUDS BELOW 12,000 FEET WITH NO
SIGNIFICANT WEATHER AND/OR OBSTRUCTIONS TO VISIBILITY.

* - STATION DOES NOT REPORT WEATHER SUCH AS PRECIPITATION OR FOG.

+ - STATION NOT QUALITY CONTROLLED BY THE NATIONAL WEATHER SERVICE.
    USE DATA WITH CAUTION...ESPECIALLY DEWPOINT AND RELATIVE
    HUMIDITY OBSERVATIONS.

INZ001>003-010>013-019-020-012000-
NORTHWEST INDIANA

CITY           SKY/WX    TMP DP  RH WIND       PRES   REMARKS
GARY /AIRPORT/ PTSUNNY   84  55  37 NW14      29.97F
KNOX *+        CLOUDY    81  52  36 NW7       29.97F
MONTICELLO +   MOSUNNY   82  58  43 W6        29.99S
RENSSELAER +   MOSUNNY   82  57  42 W7        29.99S

$$

LMZ046-743>745-012000-
SOUTHERN LAKE MICHIGAN

STATION/POSITION TIME  TEMP    WIND        PRES    WAVE
                       AIR SEA DIR/SP/G            HT
                 (UTC) (F)     (DEG/KT/KT) (MB)    (FT)
BURNS HARBOR     1800   78     300/  1/  3 1015.2F
MICHIGAN CITY    1800   76     230/  4/  5   N/A
5NW MICH CITY    1800   76 74  230/  2/  4   N/A     2

$$

INZ004-005-014>016-021>024-012000-
NORTH CENTRAL INDIANA

CITY           SKY/WX    TMP DP  RH WIND       PRES   REMARKS
GOSHEN         SUNNY     81  53  37 NW12G23   29.97F
SOUTH BEND     CLOUDY    78  51  38 NW12      29.99S
WARSAW +       MOSUNNY   82  52  34 NW10G17   29.97F

$$

INZ006>009-017-018-025>027-012000-
NORTHEAST INDIANA

CITY           SKY/WX    TMP DP  RH WIND       PRES   REMARKS
ANGOLA *+      MOSUNNY   84  55  37 NW9       29.96F
FORT WAYNE     MOSUNNY   83  54  36 NW9       29.98F

$$

INZ028-029-035-036-043>045-051>053-012000-
WEST CENTRAL INDIANA

CITY           SKY/WX    TMP DP  RH WIND       PRES   REMARKS
CRAWFORDSVL +  MOSUNNY   78  48  34 W8        30.00
GREENCASTLE +  SUNNY     81  46  30 N3        30.03F
LAFAYETTE      SUNNY     82  56  40 W7        30.00F
TERRE HAUTE    MOSUNNY   84  54  35 NE6       30.02F

$$

INZ030>032-037>040-046>048-054>057-064-065-012000-
CENTRAL INDIANA

CITY           SKY/WX    TMP DP  RH WIND       PRES   REMARKS
ANDERSON       SUNNY     81  41  24 W9        30.02F
FRANKFORT +    SUNNY     83  56  39 W7        30.03F
INDIANAPOLIS   MOSUNNY   83  53  35 W13       30.00F
-EAGLE CREEK   SUNNY     81  53  37 NW6       30.01F
KOKOMO *+      MOSUNNY   82  55  39 NW12G17   29.99F
MT COMFORT *+  SUNNY     82  37  20 N9        30.01F
SHELBYVILLE    SUNNY     83  55  38 W10       30.00F

$$

INZ033-034-041-042-049-050-058-059-012000-
EAST CENTRAL INDIANA

CITY           SKY/WX    TMP DP  RH WIND       PRES   REMARKS
MUNCIE         SUNNY     80  55  42 W9        30.00F

$$

INZ060-061-067>069-081>083-085>088-012000-
SOUTHWEST INDIANA

CITY           SKY/WX    TMP DP  RH WIND       PRES   REMARKS
EVANSVILLE     SUNNY     87  58  37 VRB6      30.02F
HUNTINGBURG *+ SUNNY     84  59  42 NW7       30.02F

$$

INZ062-063-066-070>080-084-089>092-012000-
SOUTH CENTRAL AND SOUTHEAST INDIANA

CITY           SKY/WX    TMP DP  RH WIND       PRES   REMARKS
BLOOMINGTON    SUNNY     82  55  39 N9        30.03F
MADISON *+     SUNNY     82  52  34 N6        30.03S
SEYMOUR +      SUNNY     84  54  34 N9        30.01F

$$



USA.gov is the U.S. government's official web portal to all federal, state and local government web resources and services.